Warsaw, IN

4:50 AM EDT on March 27, 2017 (GMT -0400)
Warsaw Municipal

Weather History for KASW - March, 2014

Change the Weather History Date:

Saturday, March 29, 2014

  Actual Average Record
Temperature  
Mean Temperature 34 °F -  
Max Temperature 37 °F 54 °F 79 °F (1986)
Min Temperature 30 °F 34 °F 14 °F (1966)
Degree Days  
Heating Degree Days 32    
Moisture  
Dew Point 31 °F    
Average Humidity 90    
Maximum Humidity 100    
Minimum Humidity 75    
Precipitation  
Precipitation 0.04 in - - ()
Sea Level Pressure  
Sea Level Pressure 30.12 in    
Wind  
Wind Speed 6 mph (North)    
Max Wind Speed 16 mph    
Max Gust Speed 18 mph    
Visibility 7 miles    
Events Rain , Snow    
Averages and records for this station are not official NWS values.
T = Trace of Precipitation, MM = Missing Value Source: NWS Daily Summary

Daily Weather History Graph

Daily Weather History Graph

Search for Another Location

Airport or City:

Trip Planner

Search our weather history database for the weather conditions in past years. The results will help you decide how hot, cold, wet, or windy it might be!

Date:

Astronomy

Mar. 29, 2014 Rise Set
Actual Time 7:31 AM EDT 8:05 PM EDT
Civil Twilight 7:03 AM EDT 8:33 PM EDT
Nautical Twilight 6:31 AM EDT 9:05 PM EDT
Astronomical Twilight 5:57 AM EDT 9:39 PM EDT
Moon 6:40 AM EDT (3/29) 7:09 PM EDT (3/29)
Length of Visible Light 13h 29m
Length of Day
12h 33m
Waning Crescent, 2% of the Moon is Illuminated
Mar 29
Waning Crescent
Mar 30
New
Apr 7
First Quarter
Apr 15
Full
Apr 22
Last Quarter

Hourly Weather History & Observations

Time (EDT) Temp. Windchill Dew Point Humidity Pressure Visibility Wind Dir Wind Speed Gust Speed Precip Events Conditions
12:15 AM 32.0 °F 27.5 °F 30.2 °F 93% 30.16 in 10.0 mi East 4.6 mph - N/A   Overcast
12:35 AM 32.0 °F 26.4 °F 30.2 °F 93% 30.17 in 10.0 mi East 5.8 mph - N/A   Overcast
12:55 AM 32.0 °F 27.5 °F 30.2 °F 93% 30.17 in 10.0 mi ESE 4.6 mph - N/A   Overcast
1:15 AM 32.0 °F 26.4 °F 30.2 °F 93% 30.16 in 10.0 mi East 5.8 mph - N/A   Overcast
1:35 AM 32.0 °F 28.7 °F 30.2 °F 93% 30.15 in 10.0 mi East 3.5 mph - N/A   Overcast
1:55 AM 32.0 °F 28.7 °F 30.2 °F 93% 30.15 in 10.0 mi East 3.5 mph - N/A   Overcast
2:15 AM 32.0 °F - 30.2 °F 93% 30.16 in 10.0 mi Calm Calm - N/A   Overcast
2:35 AM 32.0 °F - 30.2 °F 93% 30.14 in 10.0 mi Calm Calm - N/A   Overcast
2:55 AM 32.0 °F 28.7 °F 30.2 °F 93% 30.13 in 10.0 mi North 3.5 mph - N/A   Overcast
3:15 AM 32.0 °F 27.5 °F 30.2 °F 93% 30.12 in 10.0 mi North 4.6 mph - N/A   Overcast
3:35 AM 32.0 °F - 30.2 °F 93% 30.13 in 7.0 mi Calm Calm - N/A   Overcast
3:55 AM 32.0 °F - 30.2 °F 93% 30.12 in 7.0 mi Calm Calm - N/A   Overcast
4:15 AM 32.0 °F 27.5 °F 30.2 °F 93% 30.11 in 7.0 mi NNE 4.6 mph - N/A   Overcast
4:35 AM 32.0 °F 28.7 °F 30.2 °F 93% 30.11 in 7.0 mi North 3.5 mph - N/A   Overcast
4:55 AM 32.0 °F 26.4 °F 30.2 °F 93% 30.10 in 7.0 mi North 5.8 mph - N/A   Overcast
5:15 AM 32.0 °F 26.4 °F 30.2 °F 93% 30.11 in 7.0 mi NNW 5.8 mph - N/A   Overcast
5:35 AM 32.0 °F 26.4 °F 30.2 °F 93% 30.11 in 7.0 mi North 5.8 mph - N/A   Overcast
5:55 AM 32.0 °F 26.4 °F 30.2 °F 93% 30.11 in 7.0 mi North 5.8 mph - N/A   Overcast
6:15 AM 32.0 °F 27.5 °F 30.2 °F 93% 30.11 in 7.0 mi NNW 4.6 mph - N/A   Overcast
6:35 AM 32.0 °F 27.5 °F 30.2 °F 93% 30.12 in 7.0 mi North 4.6 mph - N/A   Overcast
6:55 AM 32.0 °F 27.5 °F 30.2 °F 93% 30.11 in 7.0 mi North 4.6 mph - N/A   Overcast
7:15 AM 32.0 °F 28.7 °F 30.2 °F 93% 30.12 in 7.0 mi NNE 3.5 mph - N/A   Overcast
7:35 AM 32.0 °F 28.7 °F 30.2 °F 93% 30.11 in 3.0 mi NE 3.5 mph - N/A Snow Light Snow
7:55 AM 32.0 °F - 32.0 °F 100% 30.12 in 1.8 mi Calm Calm - N/A Snow Light Snow
8:15 AM 32.0 °F - 32.0 °F 100% 30.12 in 1.2 mi Calm Calm - N/A Snow Light Snow
8:35 AM 32.0 °F 27.5 °F 32.0 °F 100% 30.12 in 1.2 mi NNE 4.6 mph - 0.01 in Snow Light Snow
8:55 AM 32.0 °F 27.5 °F 32.0 °F 100% 30.12 in 1.5 mi North 4.6 mph - 0.01 in Snow Light Snow
9:15 AM 32.0 °F 25.6 °F 32.0 °F 100% 30.11 in 1.5 mi NNE 6.9 mph - 0.01 in Snow Light Snow
9:35 AM 32.0 °F 26.4 °F 32.0 °F 100% 30.11 in 1.5 mi NNE 5.8 mph - 0.01 in Snow Light Snow
9:55 AM 32.0 °F 25.6 °F 32.0 °F 100% 30.11 in 2.0 mi NNE 6.9 mph - 0.01 in Snow Light Snow
10:15 AM 32.0 °F 25.6 °F 32.0 °F 100% 30.11 in 2.5 mi NE 6.9 mph - 0.01 in Rain Light Rain
10:35 AM 32.0 °F 25.6 °F 32.0 °F 100% 30.11 in 3.0 mi NE 6.9 mph - 0.01 in Rain Light Rain
10:55 AM 33.8 °F 27.7 °F 32.0 °F 93% 30.11 in 3.0 mi NE 6.9 mph - 0.01 in Rain Light Rain
11:15 AM 33.8 °F 27.7 °F 32.0 °F 93% 30.12 in 4.0 mi ENE 6.9 mph - N/A Rain Light Rain
11:35 AM 33.8 °F 25.3 °F 32.0 °F 93% 30.12 in 4.0 mi ENE 11.5 mph - N/A Rain Light Rain
11:55 AM 33.8 °F 26.4 °F 33.8 °F 100% 30.12 in 5.0 mi NE 9.2 mph - 0.01 in Rain Light Rain
12:15 PM 35.6 °F 29.9 °F 33.8 °F 93% 30.12 in 7.0 mi NE 6.9 mph - N/A   Overcast
12:35 PM 35.6 °F 29.9 °F 32.0 °F 87% 30.12 in 7.0 mi NNE 6.9 mph - N/A   Overcast
12:55 PM 35.6 °F 29.2 °F 32.0 °F 87% 30.12 in 7.0 mi North 8.1 mph - N/A   Overcast
1:15 PM 33.8 °F 27.0 °F 32.0 °F 93% 30.11 in 4.0 mi North 8.1 mph - N/A   Overcast
1:35 PM 33.8 °F 24.8 °F 32.0 °F 93% 30.10 in 3.0 mi North 12.7 mph 17.3 mph N/A   Overcast
1:55 PM 33.8 °F 25.3 °F 33.8 °F 100% 30.10 in 3.0 mi North 11.5 mph - N/A   Overcast
2:15 PM 35.6 °F 27.5 °F 33.8 °F 93% 30.09 in 4.0 mi NNE 11.5 mph - N/A   Overcast
2:35 PM 35.6 °F 27.1 °F 33.8 °F 93% 30.09 in 5.0 mi North 12.7 mph 18.4 mph N/A   Overcast
2:55 PM 37.4 °F 29.8 °F 33.8 °F 87% 30.08 in 7.0 mi North 11.5 mph - N/A   Overcast
3:15 PM 35.6 °F 26.2 °F 32.0 °F 87% 30.08 in 7.0 mi North 15.0 mph - N/A   Overcast
3:35 PM 35.6 °F 27.1 °F 32.0 °F 87% 30.08 in 7.0 mi North 12.7 mph - N/A   Overcast
3:55 PM 37.4 °F 28.2 °F 33.8 °F 87% 30.07 in 7.0 mi North 16.1 mph - N/A   Overcast
4:15 PM 37.4 °F 29.8 °F 32.0 °F 81% 30.07 in 7.0 mi North 11.5 mph - N/A   Overcast
4:35 PM 37.4 °F 28.9 °F 32.0 °F 81% 30.07 in 10.0 mi North 13.8 mph 18.4 mph N/A   Overcast
4:55 PM 37.4 °F 30.3 °F 32.0 °F 81% 30.08 in 10.0 mi North 10.4 mph 17.3 mph N/A   Overcast
5:15 PM 37.4 °F 30.3 °F 32.0 °F 81% 30.08 in 10.0 mi North 10.4 mph - N/A   Overcast
5:35 PM 37.4 °F 29.3 °F 32.0 °F 81% 30.08 in 10.0 mi North 12.7 mph 17.3 mph N/A   Overcast
5:55 PM 37.4 °F 28.9 °F 32.0 °F 81% 30.09 in 10.0 mi North 13.8 mph - N/A   Overcast
6:15 PM 37.4 °F 30.8 °F 32.0 °F 81% 30.09 in 10.0 mi North 9.2 mph 17.3 mph N/A   Overcast
6:35 PM 37.4 °F 29.3 °F 30.2 °F 75% 30.10 in 10.0 mi North 12.7 mph - N/A   Overcast
6:55 PM 37.4 °F 29.8 °F 30.2 °F 75% 30.12 in 10.0 mi North 11.5 mph - N/A   Mostly Cloudy
7:15 PM 37.4 °F 30.3 °F 30.2 °F 75% 30.12 in 10.0 mi North 10.4 mph - N/A   Mostly Cloudy
7:35 PM 37.4 °F 32.1 °F 30.2 °F 75% 30.13 in 10.0 mi North 6.9 mph - N/A   Mostly Cloudy
7:55 PM 35.6 °F 27.5 °F 30.2 °F 81% 30.14 in 10.0 mi North 11.5 mph - N/A   Overcast
8:15 PM 35.6 °F 29.9 °F 30.2 °F 81% 30.15 in 10.0 mi North 6.9 mph - N/A   Overcast
8:35 PM 35.6 °F 31.7 °F 30.2 °F 81% 30.15 in 10.0 mi North 4.6 mph - N/A   Overcast
8:55 PM 33.8 °F 27.7 °F 28.4 °F 81% 30.16 in 10.0 mi North 6.9 mph - N/A   Scattered Clouds
9:15 PM 33.8 °F 28.6 °F 28.4 °F 81% 30.16 in 10.0 mi North 5.8 mph - N/A   Clear
9:35 PM 32.0 °F 26.4 °F 28.4 °F 87% 30.17 in 10.0 mi North 5.8 mph - N/A   Clear
9:55 PM 32.0 °F 26.4 °F 28.4 °F 87% 30.17 in 10.0 mi NNW 5.8 mph - N/A   Clear
10:15 PM 32.0 °F 26.4 °F 28.4 °F 87% 30.19 in 10.0 mi NNW 5.8 mph - N/A   Clear
10:35 PM 32.0 °F 26.4 °F 28.4 °F 87% 30.19 in 10.0 mi NNW 5.8 mph - N/A   Clear
10:55 PM 32.0 °F 27.5 °F 28.4 °F 87% 30.19 in 10.0 mi NNW 4.6 mph - N/A   Clear
11:15 PM 32.0 °F 27.5 °F 28.4 °F 87% 30.19 in 10.0 mi NNW 4.6 mph - N/A   Clear
11:35 PM 30.2 °F 24.3 °F 28.4 °F 93% 30.19 in 10.0 mi NNW 5.8 mph - N/A   Clear
11:55 PM 30.2 °F 26.7 °F 28.4 °F 93% 30.19 in 10.0 mi NNW 3.5 mph - N/A   Clear